Date,TemperatureHighF,TemperatureAvgF,TemperatureLowF,DewpointHighF,DewpointAvgF,DewpointLowF,HumidityHigh,HumidityAvg,HumidityLow,PressureMaxIn,PressureMinIn,WindSpeedMaxMPH,WindSpeedAvgMPH,GustSpeedMaxMPH,PrecipitationSumIn
2013-5-1,68,64,60,60,59,57,93,86,76,30.08,29.89,6,3,0,0.00
2013-5-2,71,64,60,63,60,57,91,86,75,30.10,29.95,14,4,0,0.00
2013-5-3,80,65,56,66,59,47,92,80,32,30.00,29.77,9,2,0,0.00
2013-5-4,67,63,60,62,59,55,94,87,78,29.86,29.76,9,4,0,0.00
2013-5-5,65,62,61,59,58,56,89,85,79,29.95,29.82,8,2,0,0.00
2013-5-6,65,62,60,62,60,58,98,91,82,30.00,29.90,11,3,0,0.19
2013-5-7,68,64,60,60,58,56,92,83,68,30.06,29.97,11,4,0,0.00
2013-5-8,68,63,59,60,58,56,93,84,73,30.09,30.05,11,2,0,0.04
2013-5-9,67,62,57,60,58,53,91,85,78,30.09,30.03,14,3,0,0.00
2013-5-10,69,64,60,63,60,56,92,85,77,30.08,30.00,9,3,0,0.00
2013-5-11,68,64,62,63,62,60,97,92,83,30.07,29.97,12,3,0,0.00
2013-5-12,72,65,61,65,63,61,100,94,76,30.04,29.89,17,4,0,0.00
2013-5-13,75,68,63,68,64,61,96,85,75,29.96,29.86,16,3,0,0.01
2013-5-14,69,65,62,62,60,58,92,85,77,29.99,29.89,16,4,0,0.00
2013-5-15,68,64,61,61,59,57,89,84,78,30.04,29.95,10,3,0,0.00
2013-5-16,68,60,62,62,39,-100,87,83,79,29.97,29.90,17,3,0,0.00
2013-5-17,69,64,62,63,54,-100,91,85,76,29.99,29.90,11,3,0,0.00
2013-5-18,69,65,62,62,60,58,89,84,77,30.03,29.97,12,3,0,0.00
2013-5-19,69,65,62,62,60,58,91,84,77,29.98,29.88,11,3,0,0.00
2013-5-20,70,66,62,64,62,59,91,87,80,29.94,29.89,12,3,0,0.00
2013-5-21,69,66,64,64,62,61,92,88,81,29.93,29.84,10,2,0,0.00
2013-5-22,69,66,64,62,60,59,88,83,75,29.84,29.79,6,2,0,0.00
2013-5-23,68,64,61,60,58,56,88,81,73,29.93,29.82,6,2,0,0.00
2013-5-24,67,64,61,59,57,56,86,80,74,29.99,29.90,7,2,0,0.00
2013-5-25,68,63,56,61,56,52,87,80,71,30.02,29.96,14,4,0,0.00
2013-5-26,68,64,61,60,58,55,87,81,75,30.05,29.98,6,2,0,0.00
2013-5-27,68,64,58,62,59,54,89,84,79,30.00,29.87,14,4,0,0.00
2013-5-28,72,67,64,64,61,59,91,83,76,29.88,29.75,12,3,0,0.00
2013-5-29,71,67,64,65,63,60,91,86,80,29.80,29.73,13,5,0,0.00
2013-5-30,71,67,63,65,63,60,91,86,80,29.88,29.75,5,2,0,0.00
2013-5-31,71,66,63,64,62,60,90,85,78,29.90,29.82,14,5,0,0.00